TimeEST,TemperatureF,Dew PointF,Humidity,Sea Level PressureIn,VisibilityMPH,Wind Direction,Wind SpeedMPH,Gust SpeedMPH,PrecipitationIn,Events,Conditions,WindDirDegrees,DateUTC
12:53 AM,27.0,17.1,66,30.11,10.0,NNW,3.5,-,N/A,,Clear,340,2013-03-05 05:53:00
2:53 AM,25.0,16.0,69,30.11,10.0,Calm,Calm,-,N/A,,Clear,0,2013-03-05 07:53:00
3:53 AM,24.1,16.0,71,30.09,10.0,Calm,Calm,-,N/A,,Clear,0,2013-03-05 08:53:00
4:53 AM,21.9,16.0,78,30.09,10.0,Calm,Calm,-,N/A,,Clear,0,2013-03-05 09:53:00
5:53 AM,21.0,16.0,81,30.09,10.0,ENE,4.6,-,N/A,,Clear,60,2013-03-05 10:53:00
6:53 AM,19.9,15.1,81,30.09,10.0,NE,4.6,-,N/A,,Clear,50,2013-03-05 11:53:00
7:53 AM,21.2,15.8,80,30.02,10.0,NE,3.5,-,N/A,,Clear,40,2013-03-05 12:53:00
8:53 AM,25.0,18.0,75,30.07,10.0,NE,3.5,-,N/A,,Clear,40,2013-03-05 13:53:00
9:53 AM,28.0,16.0,61,30.06,10.0,Calm,Calm,-,N/A,,Clear,0,2013-03-05 14:53:00
10:53 AM,32.0,14.0,48,30.05,10.0,Calm,Calm,-,N/A,,Clear,0,2013-03-05 15:53:00
11:53 AM,35.1,12.0,39,30.01,10.0,ENE,3.5,-,N/A,,Clear,60,2013-03-05 16:53:00
12:53 PM,37.9,15.1,39,29.97,10.0,ENE,5.8,-,N/A,,Clear,60,2013-03-05 17:53:00
1:53 PM,41.0,14.0,33,29.92,10.0,Variable,6.9,-,N/A,,Clear,0,2013-03-05 18:53:00
2:53 PM,42.1,12.0,29,29.87,10.0,ENE,5.8,-,N/A,,Clear,70,2013-03-05 19:53:00
3:53 PM,45.0,12.9,27,29.85,10.0,East,9.2,-,N/A,,Clear,100,2013-03-05 20:53:00
4:53 PM,44.1,12.9,28,29.83,10.0,ENE,8.1,-,N/A,,Mostly Cloudy,70,2013-03-05 21:53:00
5:53 PM,43.0,12.9,30,29.80,10.0,Variable,6.9,-,N/A,,Mostly Cloudy,0,2013-03-05 22:53:00
6:53 PM,39.9,14.0,35,29.79,10.0,Variable,5.8,-,N/A,,Mostly Cloudy,0,2013-03-05 23:53:00
7:53 PM,41.0,15.1,35,29.76,10.0,East,8.1,16.1,N/A,,Overcast,80,2013-03-06 00:53:00
8:53 PM,39.0,14.0,36,29.72,10.0,East,10.4,20.7,N/A,,Clear,80,2013-03-06 01:53:00
9:53 PM,39.0,16.0,39,29.71,10.0,East,11.5,20.7,N/A,,Clear,90,2013-03-06 02:53:00
10:53 PM,37.9,17.1,43,29.70,10.0,East,12.7,-,N/A,,Overcast,100,2013-03-06 03:53:00
11:53 PM,35.1,26.1,70,29.70,9.0,SE,15.0,28.8,0.00,,Overcast,130,2013-03-06 04:53:00